2010 GW147

Japanese version
Home page
Updated on March 6, 2011

---------------------------------------------------------------------

* Profile

Discovery Date April 14, 2010
Magnitude 23 mag
Discoverer Wide Field Infrared Survey Explorer (NASA)

* Orbital Elements

The following orbital elements are taken from MPO181801

Epoch 2011 Feb. 8.0 TT = JDT 2455600.5                  MPC
M   0.24475              (2000.0)            P               Q
n   0.00035828     Peri.   50.21486     +0.34449816     -0.60510271
a 196.3318952      Node   313.27013     -0.81009728     +0.19475155
e   0.9725770      Incl.   99.68402     +0.47440849     +0.77196019
P2751              H   13.2           G   0.15
From 61 observations 2010 Apr. 14-June 19, mean residual 0".78.

* Magnitudes Graph

        H = 13.8  G = 0.15

---------------------------------------------------------------------

The orbital elements are published at the MPC Ephemerides and Orbital Elements.
The magnitudes graphs are made with Comet for Windows.

---------------------------------------------------------------------

Copyright(C) Seiichi Yoshida (comet@aerith.net). All rights reserved.